Lake Havasu Weather Center

Moon Phase Calendar



Lake Havasu Water Level
Online Cameras

 


      

Current Conditions in Lake Havasu City
6/18/2021 4:35:59 AM

96°F
Feels Like 92
Clear
Humidity
14%
Pressure
29.65"
Wind
0
Dew Point
39°F
UV Index
0/10 (Low)
Visibility
6 mi

Hourly Forecast

Date & Time Fri, Jun 18
4:00 AM
Fri, Jun 18
5:00 AM
Fri, Jun 18
6:00 AM
Fri, Jun 18
7:00 AM
Fri, Jun 18
8:00 AM
Fri, Jun 18
9:00 AM
Fri, Jun 18
10:00 AM
Fri, Jun 18
11:00 AM
Fri, Jun 18
12:00 PM
Fri, Jun 18
1:00 PM
Fri, Jun 18
2:00 PM
Fri, Jun 18
3:00 PM
Fri, Jun 18
4:00 PM
Fri, Jun 18
5:00 PM
Fri, Jun 18
6:00 PM
Fri, Jun 18
7:00 PM
Fri, Jun 18
8:00 PM
Fri, Jun 18
9:00 PM
Fri, Jun 18
10:00 PM
Fri, Jun 18
11:00 PM
Sat, Jun 19
12:00 AM
Sat, Jun 19
1:00 AM
Sat, Jun 19
2:00 AM
Sat, Jun 19
3:00 AM
Sat, Jun 19
4:00 AM
Sat, Jun 19
5:00 AM
Sat, Jun 19
6:00 AM
Sat, Jun 19
7:00 AM
Sat, Jun 19
8:00 AM
Sat, Jun 19
9:00 AM
Sat, Jun 19
10:00 AM
Sat, Jun 19
11:00 AM
Sat, Jun 19
12:00 PM
Sat, Jun 19
1:00 PM
Sat, Jun 19
2:00 PM
Sat, Jun 19
3:00 PM
Sat, Jun 19
4:00 PM
Sat, Jun 19
5:00 PM
Sat, Jun 19
6:00 PM
Sat, Jun 19
7:00 PM
Sat, Jun 19
8:00 PM
Sat, Jun 19
9:00 PM
Sat, Jun 19
10:00 PM
Sat, Jun 19
11:00 PM
Sun, Jun 20
12:00 AM
Sun, Jun 20
1:00 AM
Sun, Jun 20
2:00 AM
Sun, Jun 20
3:00 AM
Condition
Clouds

Clear

Clouds

Clouds

Clouds

Clouds

Clouds

Clouds

Clear

Clear

Clear

Clear

Clear

Clear

Clear

Clear

Clear

Clear

Clear

Clear

Clear

Clear

Clear

Clear

Clear

Clear

Clouds

Clouds

Clouds

Clouds

Clouds

Clouds

Clear

Clear

Clear

Clear

Clear

Clear

Clear

Clear

Clear

Clear

Clear

Clear

Clear

Clear

Clear

Clear
Temperature 96°F96°F96°F97°F100°F104°F108°F111°F114°F116°F117°F118°F119°F119°F118°F116°F110°F106°F103°F101°F98°F97°F96°F94°F92°F91°F92°F96°F100°F103°F107°F110°F113°F116°F117°F118°F119°F118°F117°F116°F109°F106°F103°F102°F100°F98°F95°F94°F
Feels Like 91°F92°F91°F93°F95°F99°F104°F107°F109°F110°F110°F111°F112°F111°F110°F109°F104°F101°F98°F97°F94°F93°F92°F91°F89°F88°F89°F93°F97°F101°F103°F106°F109°F111°F111°F112°F111°F110°F110°F109°F104°F101°F99°F98°F95°F93°F91°F90°F
Cloudiness 12%1%12%23%24%25%25%21%7%6%6%5%4%4%0%0%0%0%7%7%0%3%4%3%4%10%86%87%84%86%82%74%9%6%5%4%3%3%3%3%3%4%3%2%2%1%1%1%
Visibility 6 mi6 mi6 mi6 mi6 mi6 mi6 mi6 mi6 mi6 mi6 mi6 mi6 mi6 mi6 mi6 mi6 mi6 mi6 mi6 mi6 mi6 mi6 mi6 mi6 mi6 mi6 mi6 mi6 mi6 mi6 mi6 mi6 mi6 mi6 mi6 mi6 mi6 mi6 mi6 mi6 mi6 mi6 mi6 mi6 mi6 mi6 mi6 mi
Precipitation 0%0%0%0%0%0%0%0%0%0%0%0%0%0%0%0%0%0%0%0%0%0%0%0%0%0%0%0%0%0%0%0%0%0%0%0%0%0%0%0%0%0%0%0%0%0%0%0%
Humidity 15%14%15%15%14%13%12%11%10%9%8%8%8%7%7%8%9%11%12%13%15%16%18%21%23%25%25%22%19%17%14%12%11%10%8%8%7%7%7%8%10%11%12%12%13%13%14%14%
Dew Point 41°F39°F41°F42°F42°F43°F43°F43°F42°F42°F41°F40°F40°F39°F38°F38°F38°F38°F40°F41°F42°F42°F43°F46°F48°F49°F49°F50°F49°F48°F47°F45°F44°F43°F42°F40°F39°F39°F38°F38°F39°F39°F40°F39°F39°F37°F37°F36°F
Pressure 29.65"29.65"29.65"29.65"29.65"29.65"29.65"29.62"29.59"29.56"29.53"29.53"29.5"29.47"29.47"29.47"29.47"29.5"29.53"29.53"29.56"29.56"29.56"29.56"29.59"29.59"29.62"29.62"29.62"29.62"29.62"29.59"29.59"29.56"29.53"29.5"29.47"29.47"29.44"29.44"29.47"29.5"29.5"29.53"29.56"29.56"29.56"29.56"
Wind Speed 1.6 mph0.6 mph1.2 mph1.6 mph3 mph4.2 mph4.8 mph6 mph8 mph8.7 mph8.6 mph8.4 mph8.3 mph10.3 mph12.5 mph12.4 mph8.7 mph5.5 mph4.7 mph0.7 mph0.6 mph1.7 mph3.1 mph5.2 mph4.8 mph5 mph6 mph4.6 mph4.4 mph4.3 mph4.3 mph4.8 mph6.6 mph8.6 mph8.8 mph10.1 mph13.6 mph15 mph13.8 mph12.2 mph9.6 mph8.2 mph8.7 mph8.4 mph6.6 mph5.6 mph4 mph4.4 mph
Wind
Direction
337°
NNW
219°
SW
352°
N
110°
ESE
124°
SE
150°
SSE
166°
SSE
175°
S
184°
S
193°
SSW
197°
SSW
206°
SSW
214°
SW
223°
SW
232°
SW
237°
WSW
240°
WSW
278°
W
302°
WNW
264°
W
175°
S
87°
E
113°
ESE
123°
ESE
115°
ESE
128°
SE
126°
SE
126°
SE
151°
SSE
163°
SSE
176°
S
194°
SSW
200°
SSW
204°
SSW
207°
SSW
204°
SSW
212°
SSW
227°
SW
243°
WSW
249°
WSW
229°
SW
229°
SW
227°
SW
271°
W
294°
WNW
274°
W
262°
W
262°
W

Daily Forecast

Date High Low Precip. Humidity
Today
Jun 18

Clear
119 °F
95 °F
0%
10%
Saturday
Jun 19

Clear
119 °F
91 °F
0%
11%
Sunday
Jun 20

Clear
118 °F
91 °F
0%
7%
Monday
Jun 21

Clear
110 °F
86 °F
0%
19%
Tuesday
Jun 22

Clouds
108 °F
80 °F
0%
17%
Wednesday
Jun 23

Clear
109 °F
80 °F
0%
15%
Thursday
Jun 24

Clear
108 °F
82 °F
0%
10%
Friday
Jun 25

Clear
110 °F
82 °F
0%
8%
Saturday
Jun 26

Clear
113 °F
85 °F
0%
16%
Sunday
Jun 27

Clear
117 °F
86 °F
0%
17%
Monday
Jun 28

Clear
115 °F
87 °F
0%
14%
Tuesday
Jun 29

Clear
111 °F
87 °F
0%
26%
Wednesday
Jun 30

Clear
108 °F
85 °F
0%
23%
Thursday
Jul 1

Clear
108 °F
81 °F
0%
18%
Friday
Jul 2

Clouds
108 °F
80 °F
0%
10%
Saturday
Jul 3

Clear
106 °F
74 °F
0%
9%

Temperature 8-14 Day Outlook



Precipitation 8-14 Day Outlook




Quick Links
Lake Havasu News
Lake Havasu Photos
Lake Havasu Videos




About Us
Contact Us
Site Map
Search Site
Advertise With Us
   
Havasu.LakesOnline.com
THE LAKE HAVASU WEBSITE

Copyright 2021, Lakes Online
Privacy    |    Legal